When you browse on this site, cookies collect data to enhance your experience and personalize the content and advertising you see.
Visit our Privacy Policy to learn more. By continuing to use the site, you agree to this use of cookies and data.
  • In Hungary
  • List of Countries
  • For 7 days
  • Water Temperature
  • Weather Map
  • News
  • Weather Widgets
  • user-avatar
    Login

    Hourly Weather Valasske Mezirici

    Today, 22 February, Saturday

    Time Temperature Precipitation Wind Pressure Humidity
    00:00 +1°C° 0 mm 1 mps 739 mmHg 89%
    01:00 +1°C° 0 mm 1 mps 739 mmHg 89%
    02:00 +1°C° 0 mm 1 mps 739 mmHg 89%
    03:00 0°C° 0 mm 1 mps 738 mmHg 89%
    04:00 -2°C° 0 mm 2 mps 738 mmHg 89%
    05:00 -2°C° 0 mm 2 mps 738 mmHg 88%
    06:00 -2°C° 0 mm 2 mps 738 mmHg 88%
    07:00 -1°C° 0 mm 3 mps 738 mmHg 87%
    08:00 0°C° 0 mm 3 mps 738 mmHg 83%
    09:00 0°C° 0 mm 4 mps 738 mmHg 78%
    10:00 +2°C° 0 mm 5 mps 737 mmHg 74%
    11:00 +2°C° 0 mm 5 mps 737 mmHg 72%
    12:00 +3°C° 0 mm 6 mps 737 mmHg 70%
    13:00 +4°C° 0 mm 6 mps 736 mmHg 68%
    14:00 +4°C° 0 mm 6 mps 735 mmHg 69%
    15:00 +5°C° 0 mm 5 mps 735 mmHg 69%
    16:00 +5°C° 0 mm 5 mps 734 mmHg 69%
    17:00 +3°C° 0 mm 5 mps 734 mmHg 69%
    18:00 +4°C° 0 mm 4 mps 734 mmHg 70%
    19:00 +3°C° 0 mm 4 mps 734 mmHg 71%
    20:00 +3°C° 0 mm 4 mps 734 mmHg 71%
    21:00 +3°C° 0 mm 4 mps 733 mmHg 72%
    22:00 +3°C° 0 mm 4 mps 733 mmHg 73%
    23:00 +3°C° 0 mm 4 mps 733 mmHg 74%

    Tomorrow, 23 February, Sunday

    Time Temperature Precipitation Wind Pressure Humidity
    00:00 +3°C° 0 mm 3 mps 733 mmHg 75%
    01:00 +3°C° 0 mm 3 mps 733 mmHg 77%
    02:00 +3°C° 0.2 mm 3 mps 733 mmHg 81%
    03:00 +4°C° 0.2 mm 3 mps 732 mmHg 85%
    04:00 +4°C° 0.2 mm 3 mps 732 mmHg 89%
    05:00 +4°C° 0.1 mm 3 mps 732 mmHg 89%
    06:00 +5°C° 0.1 mm 3 mps 732 mmHg 90%
    07:00 +5°C° 0.1 mm 3 mps 732 mmHg 91%
    08:00 +5°C° 0.3 mm 3 mps 732 mmHg 89%
    09:00 +7°C° 0.3 mm 3 mps 732 mmHg 87%
    10:00 +6°C° 0.3 mm 4 mps 732 mmHg 85%
    11:00 +6°C° 0 mm 4 mps 731 mmHg 84%
    12:00 +6°C° 0 mm 4 mps 731 mmHg 83%
    13:00 +6°C° 0 mm 4 mps 731 mmHg 82%
    14:00 +6°C° 0.4 mm 5 mps 729 mmHg 84%
    15:00 +6°C° 0.4 mm 5 mps 727 mmHg 87%
    16:00 +5°C° 0.4 mm 6 mps 726 mmHg 90%
    17:00 +6°C° 0.7 mm 7 mps 725 mmHg 87%
    18:00 +8°C° 0.7 mm 7 mps 724 mmHg 84%
    19:00 +9°C° 0.7 mm 8 mps 723 mmHg 82%
    20:00 +9°C° 0.2 mm 8 mps 722 mmHg 81%
    21:00 +8°C° 0.2 mm 9 mps 721 mmHg 80%
    22:00 +10°C° 0.2 mm 9 mps 720 mmHg 79%
    23:00 +7°C° 0.8 mm 9 mps 722 mmHg 75%

    Day after tomorrow, 24 February, Monday

    Time Temperature Precipitation Wind Pressure Humidity
    00:00 +5°C° 0.8 mm 9 mps 724 mmHg 71%
    01:00 +2°C° 0.8 mm 8 mps 726 mmHg 67%
    02:00 +2°C° 0 mm 7 mps 727 mmHg 70%
    03:00 +1°C° 0 mm 6 mps 728 mmHg 73%
    04:00 0°C° 0 mm 5 mps 729 mmHg 76%
    05:00 0°C° 0 mm 4 mps 730 mmHg 76%
    06:00 -1°C° 0 mm 4 mps 731 mmHg 77%
    07:00 0°C° 0 mm 3 mps 732 mmHg 78%
    08:00 -1°C° 0 mm 4 mps 733 mmHg 75%
    09:00 0°C° 0 mm 4 mps 733 mmHg 73%
    10:00 +1°C° 0 mm 4 mps 734 mmHg 70%
    11:00 +3°C° 0 mm 4 mps 734 mmHg 69%
    12:00 +4°C° 0 mm 4 mps 734 mmHg 67%
    13:00 +4°C° 0 mm 4 mps 734 mmHg 65%
    14:00 +4°C° 0 mm 4 mps 734 mmHg 65%
    15:00 +4°C° 0 mm 3 mps 733 mmHg 65%
    16:00 +4°C° 0 mm 3 mps 733 mmHg 65%
    17:00 +3°C° 0 mm 3 mps 733 mmHg 69%
    18:00 +3°C° 0 mm 2 mps 732 mmHg 74%
    19:00 +2°C° 0 mm 2 mps 732 mmHg 78%
    20:00 +2°C° 0 mm 2 mps 732 mmHg 78%
    21:00 +3°C° 0 mm 2 mps 731 mmHg 77%
    22:00 +2°C° 0 mm 3 mps 730 mmHg 77%
    23:00 +2°C° 0 mm 3 mps 730 mmHg 76%

    25 February, Tuesday

    Time Temperature Precipitation Wind Pressure Humidity
    00:00 +2°C° 0 mm 3 mps 729 mmHg 76%
    01:00 +3°C° 0 mm 4 mps 729 mmHg 75%
    02:00 +3°C° 0 mm 4 mps 728 mmHg 78%
    03:00 +3°C° 0 mm 4 mps 727 mmHg 81%
    04:00 +3°C° 0 mm 3 mps 726 mmHg 84%
    05:00 +1°C° 0 mm 4 mps 726 mmHg 85%
    06:00 +1°C° 0 mm 4 mps 726 mmHg 87%
    07:00 +1°C° 0 mm 4 mps 726 mmHg 88%
    08:00 +3°C° 0 mm 4 mps 725 mmHg 84%
    09:00 +4°C° 0 mm 4 mps 725 mmHg 81%
    10:00 +5°C° 0 mm 5 mps 725 mmHg 78%
    11:00 +6°C° 0 mm 5 mps 724 mmHg 77%
    12:00 +6°C° 0 mm 5 mps 723 mmHg 76%
    13:00 +7°C° 0 mm 5 mps 723 mmHg 75%
    14:00 +7°C° 0.1 mm 5 mps 722 mmHg 76%
    15:00 +7°C° 0.1 mm 5 mps 722 mmHg 76%
    16:00 +7°C° 0.1 mm 5 mps 721 mmHg 77%
    17:00 +7°C° 0.3 mm 4 mps 721 mmHg 79%
    18:00 +6°C° 0.3 mm 4 mps 721 mmHg 81%
    19:00 +6°C° 0.3 mm 4 mps 721 mmHg 84%
    20:00 +5°C° 0.1 mm 3 mps 721 mmHg 86%
    21:00 +5°C° 0.1 mm 3 mps 721 mmHg 89%
    22:00 +5°C° 0.1 mm 2 mps 721 mmHg 91%
    23:00 +5°C° 0.1 mm 2 mps 720 mmHg 90%

    26 February, Wednesday

    Time Temperature Precipitation Wind Pressure Humidity
    00:00 +5°C° 0.1 mm 2 mps 720 mmHg 89%
    01:00 +3°C° 0.1 mm 3 mps 720 mmHg 89%
    02:00 +4°C° 0 mm 2 mps 719 mmHg 89%
    03:00 +3°C° 0 mm 2 mps 719 mmHg 88%
    04:00 +3°C° 0 mm 2 mps 718 mmHg 88%
    05:00 +2°C° 0 mm 2 mps 718 mmHg 88%
    06:00 +2°C° 0 mm 2 mps 718 mmHg 88%
    07:00 +1°C° 0 mm 3 mps 717 mmHg 88%
    08:00 +1°C° 0 mm 4 mps 717 mmHg 81%
    09:00 +2°C° 0 mm 5 mps 717 mmHg 75%
    10:00 +3°C° 0 mm 6 mps 717 mmHg 68%
    11:00 +3°C° 0.1 mm 6 mps 717 mmHg 62%
    12:00 +5°C° 0.1 mm 5 mps 716 mmHg 55%
    13:00 +5°C° 0.1 mm 5 mps 716 mmHg 49%
    14:00 +3°C° 0 mm 5 mps 716 mmHg 49%
    15:00 +4°C° 0 mm 4 mps 716 mmHg 48%
    16:00 +4°C° 0 mm 3 mps 716 mmHg 47%
    17:00 +3°C° 0 mm 3 mps 717 mmHg 52%
    18:00 +3°C° 0 mm 2 mps 717 mmHg 57%
    19:00 +2°C° 0 mm 2 mps 717 mmHg 62%
    20:00 +1°C° 0 mm 2 mps 718 mmHg 65%
    21:00 0°C° 0 mm 3 mps 718 mmHg 68%
    22:00 -1°C° 0 mm 3 mps 718 mmHg 71%
    23:00 -1°C° 0 mm 3 mps 719 mmHg 75%

    27 February, Thursday

    Time Temperature Precipitation Wind Pressure Humidity
    00:00 -1°C° 0 mm 3 mps 719 mmHg 79%
    01:00 -1°C° 0 mm 3 mps 719 mmHg 84%
    02:00 -1°C° 0 mm 3 mps 719 mmHg 83%
    03:00 -1°C° 0 mm 3 mps 720 mmHg 81%
    04:00 -2°C° 0 mm 4 mps 720 mmHg 80%
    05:00 -1°C° 0 mm 3 mps 720 mmHg 81%
    06:00 -1°C° 0 mm 3 mps 721 mmHg 81%
    07:00 -1°C° 0 mm 3 mps 721 mmHg 82%
    08:00 -1°C° 0.1 mm 4 mps 722 mmHg 80%
    09:00 0°C° 0.1 mm 5 mps 722 mmHg 78%
    10:00 0°C° 0.1 mm 5 mps 723 mmHg 77%
    11:00 +1°C° 0.2 mm 6 mps 723 mmHg 73%
    12:00 +1°C° 0.2 mm 6 mps 724 mmHg 69%
    13:00 +2°C° 0.2 mm 7 mps 724 mmHg 65%
    14:00 +2°C° 0.2 mm 6 mps 724 mmHg 65%
    15:00 +2°C° 0.2 mm 6 mps 724 mmHg 65%
    16:00 +2°C° 0.2 mm 6 mps 725 mmHg 66%
    17:00 +1°C° 0.1 mm 5 mps 725 mmHg 71%
    18:00 0°C° 0.1 mm 4 mps 726 mmHg 76%
    19:00 0°C° 0.1 mm 3 mps 726 mmHg 81%
    20:00 -1°C° 0 mm 2 mps 726 mmHg 83%
    21:00 -1°C° 0 mm 2 mps 727 mmHg 85%
    22:00 0°C° 0 mm 1 mps 727 mmHg 87%
    23:00 0°C° 0 mm 1 mps 727 mmHg 88%
    Show more